This is the latest recevied weather packets stored in our database for station/object N2PUI. If no packets are shown the sender has not sent any weather packets the latest 10 day(s).
| Time | Temp. | Humidity | Pressure | Rain* | Wind** | Luminosity | Snow |
|---|---|---|---|---|---|---|---|
| 1777639062 | 5° C | 92% | 1014.2 hPa | 0 mm | - | 257 W/m² | - |
| 1777638759 | 4.44° C | 92% | 1014.2 hPa | 0 mm | - | 286 W/m² | - |
| 1777638454 | 3.89° C | 92% | 1014.3 hPa | 0 mm | - | 247 W/m² | - |
| 1777638152 | 2.78° C | 93% | 1014.1 hPa | 0 mm | - | 67 W/m² | - |
| 1777637847 | 2.78° C | 92% | 1013.8 hPa | 0 mm | - | 230 W/m² | - |
| 1777637544 | 2.22° C | 93% | 1014 hPa | 0 mm | - | 230 W/m² | - |
| 1777637242 | 1.67° C | 92% | 1014.1 hPa | 0 mm | - | 156 W/m² | - |
| 1777636938 | 1.67° C | 92% | 1014.1 hPa | 0 mm | - | 135 W/m² | - |
| 1777636634 | 1.11° C | 93% | 1014 hPa | 0 mm | - | 133 W/m² | - |
| 1777636330 | 1.11° C | 92% | 1013.8 hPa | 0 mm | - | 127 W/m² | - |
| 1777636030 | 1.11° C | 92% | 1013.9 hPa | 0 mm | - | 108 W/m² | - |
| 1777635726 | 1.11° C | 92% | 1014.1 hPa | 0 mm | - | 104 W/m² | - |
| 1777635423 | 1.11° C | 92% | 1013.8 hPa | 0 mm | - | 111 W/m² | - |
| 1777635121 | 1.11° C | 93% | 1013.7 hPa | 0 mm | - | 111 W/m² | - |
| 1777634816 | 0.56° C | 92% | 1013.9 hPa | 0 mm | - | 100 W/m² | - |
| 1777634514 | 0.56° C | 92% | 1013.9 hPa | 0 mm | - | 86 W/m² | - |
| 1777634210 | 0° C | 92% | 1013.9 hPa | 0 mm | - | 69 W/m² | - |
| 1777633906 | 0° C | 92% | 1014.1 hPa | 0 mm | - | 61 W/m² | - |
| 1777633604 | -0.56° C | 92% | 1014 hPa | 0 mm | - | 54 W/m² | - |
| 1777633302 | 0° C | 92% | 1013.9 hPa | 0 mm | - | 44 W/m² | - |
| 1777633000 | -0.56° C | 92% | 1013.8 hPa | 0 mm | - | 44 W/m² | - |
| 1777632695 | -0.56° C | 92% | 1013.7 hPa | 0 mm | - | 39 W/m² | - |
| 1777632392 | -0.56° C | 92% | 1013.5 hPa | 0 mm | - | 36 W/m² | - |
| 1777632089 | -0.56° C | 92% | 1013.5 hPa | 0 mm | - | 29 W/m² | - |
| 1777631787 | -0.56° C | 92% | 1013.7 hPa | 0 mm | - | 23 W/m² | - |
* Rain latest hour (hover to see other rain measurements)
** Current wind speed in m/s (hover to see current wind gust speed)